W1NJC Weather Reports


Display with metric or nautical units.
time (UTC)temp
F
wind
direction
speed
MPH
gust
MPH
rain 1hr
in
rain 24hr
in
rain mn
in
humidity
%
barometer
mb
20190224044434 31 0 0.0 0.0 0.00 0.00 0.00 82 1023.4
20190224043534 31 0 0.0 0.0 0.00 0.00 0.00 82 1023.7
20190224042633 30 0 0.0 0.0 0.00 0.00 0.00 82 1023.8
20190224041733 30 0 0.0 0.0 0.00 0.00 0.00 82 1023.7
20190224040833 30 0 0.0 0.0 0.00 0.00 0.00 81 1023.9
20190224035933 30 0 0.0 0.0 0.00 0.00 0.00 81 1024.2
20190224035034 30 0 0.0 0.0 0.00 0.00 0.00 82 1024.2
20190224034133 30 0 0.0 0.0 0.00 0.00 0.00 82 1024.3
20190224033233 30 0 0.0 0.0 0.00 0.00 0.00 81 1024.2
20190224032333 30 0 0.0 0.0 0.00 0.00 0.00 82 1024.2
20190224031433 30 0 0.0 0.0 0.00 0.00 0.00 81 1024.6
20190224030533 30 0 0.0 0.0 0.00 0.00 0.00 81 1024.6
20190224025633 30 0 0.0 0.0 0.00 0.00 0.00 80 1024.6
20190224024733 30 0 0.0 0.0 0.00 0.00 0.00 80 1024.8
20190224023833 30 0 0.0 0.0 0.00 0.00 0.00 79 1024.8
20190224022933 30 0 0.0 0.0 0.00 0.00 0.00 79 1025.0
20190224022033 30 0 0.0 0.0 0.00 0.00 0.00 79 1025.2
20190224021133 30 0 0.0 0.0 0.00 0.00 0.00 79 1025.4
20190224020233 30 0 0.0 0.0 0.00 0.00 0.00 79 1025.4
20190224015333 30 0 0.0 0.0 0.00 0.00 0.00 78 1025.3
20190224014433 30 0 0.0 0.0 0.00 0.00 0.00 79 1025.4
20190224013533 30 0 0.0 0.0 0.00 0.00 0.00 78 1025.4
20190224012633 30 0 0.0 0.0 0.00 0.00 0.00 78 1025.3
20190224011733 30 0 0.0 0.0 0.00 0.00 0.00 77 1025.5
20190224010833 30 0 0.0 0.0 0.00 0.00 0.00 78 1025.6
20190224005933 30 0 0.0 0.0 0.00 0.00 0.00 77 1025.6
20190224005033 30 0 0.0 0.0 0.00 0.00 0.00 76 1025.6
20190224004133 30 0 0.0 0.0 0.00 0.00 0.00 75 1025.8
20190224003233 30 0 0.0 0.0 0.00 0.00 0.00 75 1025.8
20190224002333 30 0 0.0 0.0 0.00 0.00 0.00 75 1025.8
20190224001433 30 0 0.0 0.0 0.00 0.00 0.00 74 1025.5
20190224000534 30 0 0.0 0.0 0.00 0.00 0.00 73 1025.8
20190223235633 31 0 0.0 0.0 0.00 0.00 0.00 71 1025.6
20190223234733 31 0 0.0 0.0 0.00 0.00 0.00 71 1025.7
20190223233833 32 0 0.0 0.0 0.00 0.00 0.00 69 1025.9
20190223232932 32 0 0.0 0.0 0.00 0.00 0.00 67 1025.9
20190223232033 33 0 0.0 0.0 0.00 0.00 0.00 66 1026.0
20190223231132 34 0 0.0 0.0 0.00 0.00 0.00 68 1025.9
20190223230232 35 0 0.0 0.0 0.00 0.00 0.00 67 1025.7
20190223225333 35 0 0.0 0.0 0.00 0.00 0.00 66 1025.5
20190223224432 36 0 0.0 0.0 0.00 0.00 0.00 56 1025.4
20190223223532 36 0 0.0 0.0 0.00 0.00 0.00 56 1025.6
20190223222632 37 260 0.0 1.0 0.00 0.00 0.00 54 1025.8
20190223221732 38 257 0.0 2.0 0.00 0.00 0.00 55 1026.0
20190223220832 38 207 0.0 4.0 0.00 0.00 0.00 53 1026.2
20190223215932 38 210 0.0 2.0 0.00 0.00 0.00 54 1026.3
20190223215032 39 245 1.0 5.0 0.00 0.00 0.00 51 1026.4
20190223214132 39 200 0.0 2.0 0.00 0.00 0.00 49 1026.7
20190223213232 39 194 0.0 4.0 0.00 0.00 0.00 49 1026.8
20190223212332 40 196 1.0 4.0 0.00 0.00 0.00 49 1027.0
20190223211432 40 227 1.0 6.0 0.00 0.00 0.00 48 1027.2
20190223210532 40 211 1.0 5.0 0.00 0.00 0.00 47 1027.3
20190223205632 40 205 1.0 4.0 0.00 0.00 0.00 48 1027.4
20190223204732 41 242 0.0 3.0 0.00 0.00 0.00 46 1027.3
20190223203832 41 210 1.0 6.0 0.00 0.00 0.00 46 1027.3
20190223202932 41 199 1.0 6.0 0.00 0.00 0.00 46 1027.3
20190223202032 41 202 1.0 6.0 0.00 0.00 0.00 48 1027.4
20190223201132 41 222 3.0 10.0 0.00 0.00 0.00 43 1027.3
20190223200232 41 237 3.0 11.0 0.00 0.00 0.00 42 1027.5
20190223195332 41 219 1.0 7.0 0.00 0.00 0.00 44 1027.5
20190223194432 41 226 1.0 7.0 0.00 0.00 0.00 42 1027.5
20190223193532 41 246 0.0 5.0 0.00 0.00 0.00 44 1027.6
20190223192632 41 231 1.0 7.0 0.00 0.00 0.00 44 1027.7
20190223191732 41 248 1.0 8.0 0.00 0.00 0.00 43 1027.7
20190223190832 42 260 1.0 7.0 0.00 0.00 0.00 46 1027.8
20190223185932 42 244 1.0 6.0 0.00 0.00 0.00 43 1027.8
20190223185032 41 219 1.0 7.0 0.00 0.00 0.00 43 1027.8
20190223184132 41 245 1.0 6.0 0.00 0.00 0.00 44 1027.9
20190223183232 40 160 0.0 2.0 0.00 0.00 0.00 47 1027.9
20190223182331 40 75 0.0 2.0 0.00 0.00 0.00 46 1027.9
20190223181432 40 87 0.0 2.0 0.00 0.00 0.00 46 1028.0
20190223180531 39 339 0.0 3.0 0.00 0.00 0.00 48 1027.9
20190223175631 40 28 0.0 4.0 0.00 0.00 0.00 45 1028.0
20190223174731 40 98 0.0 2.0 0.00 0.00 0.00 47 1028.1
20190223173831 40 85 0.0 3.0 0.00 0.00 0.00 49 1028.1
20190223172931 39 71 1.0 3.0 0.00 0.00 0.00 48 1028.3
20190223172031 39 94 0.0 3.0 0.00 0.00 0.00 50 1028.4
20190223171131 39 186 0.0 2.0 0.00 0.00 0.00 48 1028.8
20190223170232 38 161 1.0 4.0 0.00 0.00 0.00 51 1029.0
20190223165331 38 103 1.0 4.0 0.00 0.00 0.00 50 1029.2
20190223164431 38 73 0.0 2.0 0.00 0.00 0.00 50 1029.5
20190223163531 37 75 0.0 3.0 0.00 0.00 0.00 53 1029.6
20190223162631 37 64 0.0 4.0 0.00 0.00 0.00 52 1029.9
20190223161731 37 82 0.0 3.0 0.00 0.00 0.00 53 1029.9
20190223160831 36 64 0.0 4.0 0.00 0.00 0.00 55 1030.0
20190223155931 36 56 1.0 5.0 0.00 0.00 0.00 54 1030.1
20190223155031 36 80 1.0 4.0 0.00 0.00 0.00 56 1030.2
20190223154131 35 70 1.0 4.0 0.00 0.00 0.00 60 1030.3
20190223153231 35 59 1.0 6.0 0.00 0.01 0.00 56 1030.5
20190223151438 33 73 1.0 4.0 0.00 0.01 0.00 61 1030.7
20190223150538 33 73 1.0 4.0 0.00 0.01 0.00 61 1030.7
20190223145638 33 70 1.0 4.0 0.00 0.01 0.00 63 1030.7
20190223144738 32 78 1.0 6.0 0.00 0.01 0.00 63 1030.8
20190223143838 32 69 1.0 6.0 0.00 0.01 0.00 63 1030.8
20190223142938 32 65 1.0 6.0 0.00 0.01 0.00 63 1030.8
20190223142038 32 65 1.0 4.0 0.00 0.01 0.00 65 1030.9
20190223141138 31 72 1.0 9.0 0.00 0.01 0.00 66 1031.0
20190223140238 30 77 1.0 5.0 0.00 0.01 0.00 69 1031.0
20190223135338 30 55 1.0 5.0 0.00 0.01 0.00 71 1031.0
20190223134438 29 34 0.0 3.0 0.00 0.01 0.00 76 1031.1
20190223133538 28 44 0.0 1.0 0.00 0.01 0.00 79 1031.2
20190223132638 26 44 0.0 1.0 0.00 0.01 0.00 84 1031.3
20190223131738 25 19 0.0 2.0 0.00 0.01 0.00 90 1031.2
20190223130837 24 0 0.0 0.0 0.00 0.01 0.00 92 1031.4
20190223125937 23 0 0.0 0.0 0.00 0.01 0.00 92 1031.5
20190223125037 23 0 0.0 0.0 0.00 0.01 0.00 92 1031.3
20190223124137 22 0 0.0 0.0 0.00 0.01 0.00 92 1031.5
20190223123237 22 0 0.0 0.0 0.00 0.01 0.00 92 1031.4
20190223122337 21 0 0.0 0.0 0.00 0.01 0.00 91 1031.5
20190223121437 21 0 0.0 0.0 0.00 0.01 0.00 91 1031.5
20190223120537 21 0 0.0 0.0 0.00 0.01 0.00 91 1031.5
20190223115637 21 0 0.0 0.0 0.00 0.01 0.00 90 1031.3
20190223114737 21 0 0.0 0.0 0.00 0.01 0.00 90 1031.3
20190223113837 21 0 0.0 0.0 0.00 0.01 0.00 89 1031.2
20190223112937 21 0 0.0 0.0 0.00 0.01 0.00 89 1031.2
20190223112037 21 0 0.0 0.0 0.00 0.01 0.00 89 1031.4
20190223111137 22 0 0.0 0.0 0.00 0.01 0.00 89 1031.3
20190223110237 22 0 0.0 0.0 0.00 0.01 0.00 89 1031.2
20190223105337 22 0 0.0 0.0 0.00 0.01 0.00 89 1031.2
20190223104437 22 0 0.0 0.0 0.00 0.01 0.00 89 1030.9
20190223103537 22 0 0.0 0.0 0.00 0.01 0.00 89 1030.8
20190223102637 22 0 0.0 0.0 0.00 0.01 0.00 88 1030.7
20190223101737 22 0 0.0 0.0 0.00 0.01 0.00 88 1030.8
20190223100837 23 0 0.0 0.0 0.00 0.01 0.00 88 1030.8
20190223095937 23 0 0.0 0.0 0.00 0.01 0.00 88 1030.7
20190223095037 23 0 0.0 0.0 0.00 0.01 0.00 88 1030.4
20190223094137 23 0 0.0 0.0 0.00 0.01 0.00 87 1030.3
20190223093237 24 0 0.0 0.0 0.00 0.01 0.00 87 1030.1
20190223092337 24 0 0.0 0.0 0.00 0.01 0.00 87 1030.1
20190223091437 24 0 0.0 0.0 0.00 0.01 0.00 87 1030.0
20190223090537 24 0 0.0 0.0 0.00 0.01 0.00 87 1030.0
20190223085637 24 0 0.0 0.0 0.00 0.01 0.00 86 1030.0
20190223084737 25 0 0.0 0.0 0.00 0.01 0.00 86 1030.1
20190223083837 25 0 0.0 0.0 0.00 0.01 0.00 86 1030.0
20190223082936 25 0 0.0 0.0 0.00 0.01 0.00 86 1030.1
20190223082036 25 0 0.0 0.0 0.00 0.01 0.00 85 1030.2
20190223081136 26 0 0.0 0.0 0.00 0.01 0.00 85 1030.2
20190223080237 26 0 0.0 0.0 0.00 0.01 0.00 85 1030.2
20190223075336 26 0 0.0 0.0 0.00 0.01 0.00 85 1030.2
20190223074436 26 0 0.0 0.0 0.00 0.01 0.00 84 1030.1
20190223073536 27 0 0.0 0.0 0.00 0.01 0.00 85 1030.0
20190223072636 27 0 0.0 0.0 0.00 0.01 0.00 84 1030.0
20190223071736 27 0 0.0 0.0 0.00 0.01 0.00 84 1030.1
20190223070836 27 0 0.0 0.0 0.00 0.01 0.00 83 1030.3
20190223065936 28 0 0.0 0.0 0.00 0.01 0.00 82 1030.3
20190223065036 28 290 0.0 2.0 0.00 0.01 0.00 82 1030.2
20190223064136 28 290 0.0 1.0 0.00 0.01 0.00 82 1030.1
20190223063236 28 290 0.0 1.0 0.00 0.01 0.00 82 1030.0
20190223062336 29 0 0.0 0.0 0.00 0.01 0.00 81 1030.1
20190223061436 29 0 0.0 1.0 0.00 0.01 0.00 79 1029.9
20190223060536 29 290 0.0 2.0 0.00 0.01 0.00 77 1030.0
20190223055636 30 290 0.0 2.0 0.00 0.01 0.00 76 1029.9
20190223054736 30 288 0.0 3.0 0.00 0.01 0.00 76 1029.7
20190223053836 30 271 0.0 3.0 0.00 0.01 0.00 78 1029.8
20190223052936 30 273 0.0 2.0 0.00 0.01 0.00 76 1029.6
20190223052036 31 271 0.0 1.0 0.00 0.01 0.00 73 1029.4
20190223051136 31 0 0.0 1.0 0.00 0.01 0.00 72 1029.2
20190223050236 31 263 0.0 2.0 0.00 0.01 0.00 72 1028.9
20190223045336 31 302 1.0 7.0 0.00 0.01 0.01 74 1028.7